Weather Roundup
Issued by NWS Chicago, IL

Home | Current Version | Previous Version | Graphics & Text | Print | Product List | Glossary On
Versions: 1 2 3 4 5 6 7 8 9 10 11 12 13 14 15 16 17 18 19 20 21 22 23 24 25 26 27 28 29 30 31 32 33 34 35 36 37 38 39 40 41 42 43 44 45 46 47 48 49 50
000
NZUS59 KLOT 301908
HRRLOT

CHICAGO AREA WEATHER ROUNDUP
NATIONAL WEATHER SERVICE CHICAGO/ROMEOVILLE IL
200 PM CDT SAT APR 30 2016

NOTE: "FAIR" INDICATES FEW OR NO CLOUDS BELOW 12,000 FEET WITH NO
SIGNIFICANT WEATHER AND/OR OBSTRUCTIONS TO VISIBILITY.

* THESE STATIONS ARE NOT UNDER NWS QUALITY CONTROL. THEY ALSO MAY NOT
  REPORT WEATHER SUCH AS PRECIPITATION OR FOG.

ILZ005-006-012>014-019>023-302000-
NORTHEAST ILLINOIS

CITY           SKY/WX    TMP DP  RH WIND       PRES   REMARKS
OHARE          LGT RAIN  45  42  89 E18G29    29.95F FOG
MIDWAY         LGT RAIN  47  42  83 E16       29.94F
AURORA         LGT RAIN  46  43  89 E13       29.93S FOG
LANSING*       LGT RAIN  47  45  92 E10G18    29.94S
JOLIET*        RAIN      48  46  94 E10       29.91S
WAUKEGAN       LGT RAIN  43  41  93 NE12      29.98F FOG
DUPAGE AIRPORT LGT RAIN  45  41  86 NE17      29.92F FOG
WHEELING       LGT RAIN  45  42  89 E10G18    29.99F FOG
KANKAKEE*      LGT RAIN  49  48  95 E18       29.89S
MORRIS*        RAIN      47  46  93 E8        29.91R
LEWIS AIRPORT* LGT RAIN  45  43  91 E13       29.92R
$$

WIZ051-052-058>065-066-070>072-302000-
SOUTHEAST WISCONSIN

CITY           SKY/WX    TMP DP  RH WIND       PRES   REMARKS
MILWAUKEE      LGT RAIN  45  38  76 E16       30.05S
KENOSHA*       RAIN      44  40  85 E18       30.01F FOG
RACINE*        LGT RAIN  44  38  79 NE14      30.05S
BURLINGTON     LGT RAIN  44  41  89 E15G22    30.00F
WAUKESHA       RAIN      45  37  76 E15G21    30.04F
WEST BEND      CLOUDY    48  34  57 E10       30.06S
$$

INZ001>003-010>013-019-020-302000-
NORTHWEST INDIANA

CITY           SKY/WX    TMP DP  RH WIND       PRES   REMARKS
GARY*          LGT RAIN  48  48 100 E14G29    29.95F
MICHIGAN CITY* NOT AVBL
RENSSELAER*    NOT AVBL
VALPARAISO     LGT RAIN  47  45  93 E20G28    29.93F FOG
$$

LMZ740>746-302000-
SOUTHERN LAKE MICHIGAN

STATION/POSITION TIME  SKY/WX   TEMP WIND        PRES    VSBY
                                AIR  DIR/SP/G
                 (UTC)          (F)  (DEG/KT/KT) (MB)    (MI)
HARRISON CRIB    1800            44   80/ 16/ 18   N/A
BURNHAM HARBOR   1900            45   50/ 17/ 20   N/A
CALUMET HARBOR   1800            45   60/ 17/ 19 1014.7F
BURNS HARBOR     1806            46   90/ 10/ 16 1015.9F
MICHIGAN CITY    1800            46   60/ 13/ 15   N/A
$$

ABBREVIATIONS USED IN REMARKS
   TC - TEMPERATURE IN CELSIUS
  WCI - WIND CHILL INDEX
   HX - HEAT INDEX
  VSB - VISIBILITY
$$



USA.gov is the U.S. government's official web portal to all federal, state and local government web resources and services.